Location: Davidson Heights
(40.5834°N, 80.2598°W)
Time: 19:28:05
(UTC+00:00)

ISS - Visible Passes

Search period start: 25 November 2020 00:00
Search period end: 05 December 2020 00:00
Orbit: 418 x 421 km, 51.6° (Epoch: 26 November)

Date Brightness Start Highest point End Pass type
(mag) Time Alt. Az. Time Alt. Az. Time Alt. Az.
25 Nov -2.4 22:33:24 10° W 22:36:28 32° NNW 22:39:33 10° NE visible
26 Nov -0.8 00:12:18 10° NW 00:12:47 12° NNW 00:12:47 12° NNW visible
26 Nov -1.5 23:24:15 10° NW 23:26:20 15° NNW 23:27:11 14° N visible
27 Nov -1.7 22:36:10 10° WNW 22:38:37 18° NNW 22:41:04 10° NNE visible
28 Nov -1.3 23:27:05 10° NNW 23:28:40 13° N 23:28:54 13° N visible
29 Nov -1.4 22:39:07 10° NW 22:40:53 13° N 22:42:40 10° NNE visible
30 Nov -1.4 23:29:12 10° NNW 23:30:36 13° N 23:30:36 13° N visible
01 Dec -1.4 22:41:35 10° NNW 22:43:11 13° N 22:44:46 10° NNE visible
02 Dec -1.7 23:30:43 10° NNW 23:32:25 17° N 23:32:25 17° N visible
03 Dec -1.7 22:43:18 10° NNW 22:45:24 15° NNE 22:46:57 12° NE visible
04 Dec -0.8 00:19:32 10° NW 00:19:55 13° NW 00:19:55 13° NW visible
04 Dec -2.6 23:32:05 10° NW 23:34:32 30° N 23:34:32 30° N visible
